Location: Hertford
(51.8000°N, 0.0667°W)
Time: 01:38:42
(UTC+00:00)

CRYOSAT 2 - Pass Details

Date: 18 September 2020
Orbit: 713 x 725 km, 92.0° (Epoch: 30 October)

Event Time Altitude Azimuth Distance (km) Brightness Sun altitude
Rises 20:49:24 0° 4° (N) 3,156 8.1 -24.1°
Reaches altitude 10° 20:51:42 10° 5° (N) 2,229 7.3 -24.4°
Maximum altitude 20:56:39 86° 94° (E) 732 4.2 -25.0°
Enters shadow 20:56:55 80° 164° (SSE) 741 4.2 -25.0°
